Lid_Strength_Index
17 17 16 16 16 17 19 19 20 20 19 16 15 14 13 12 12 13 13 13 13 13 12 12 11 11 10 10 10 10 10 10 10 10 10 9 9 8 7 8 8 8 8 8
18 16 16 16 15 16 16 16 17 17 16 14 13 13 13 13 14 13 13 13 12 12 12 12 12 12 11 11 10 10 11 11 11 11 11 10 10 9 9 9 9 9 9 9
21 19 18 21 18 16 16 16 15 18 15 14 14 14 14 14 14 13 13 13 13 12 12 12 12 12 12 11 11 11 11 11 11 11 11 11 10 10 10 10 10 10 10 10
21 21 25 20 17 16 16 16 15 15 15 14 14 14 14 14 15 13 13 13 12 12 12 12 12 12 12 12 12 12 12 12 11 11 11 11 11 11 11 11 11 11 11 11
21 23 21 19 18 17 17 18 15 15 14 14 14 15 15 14 13 14 14 13 13 13 13 13 13 12 13 13 13 12 12 12 11 11 11 12 12 12 12 12 12 12 12 11
19 22 23 20 16 14 16 19 15 15 15 15 15 17 16 14 13 13 13 13 13 13 13 14 13 13 14 14 14 13 12 11 11 11 12 12 12 12 12 12 12 12 12 12
19 20 19 16 14 14 20 19 15 14 15 15 16 15 14 13 13 13 14 14 13 14 14 14 13 14 14 14 15 13 12 12 11 11 12 12 13 13 13 13 13 13 13 13
18 21 23 16 16 18 16 15 15 16 16 16 15 14 14 14 14 14 14 13 13 14 14 14 14 15 15 15 14 14 14 14 13 13 12 12 13 13 14 14 14 14 14 14
18 18 15 15 15 15 14 15 16 16 16 15 15 15 15 15 15 14 14 14 13 14 13 13 13 14 14 13 13 13 14 14 14 14 14 14 14 13 14 15 15 14 14 14
17 16 16 15 15 14 14 14 14 14 14 14 15 14 15 14 14 14 13 13 13 13 13 13 13 13 14 13 13 14 14 14 14 14 13 13 14 14 15 14 15 15 15 15
18 16 17 16 16 15 15 14 14 14 14 14 14 14 14 14 14 14 13 13 13 14 14 14 13 13 13 13 14 14 13 13 13 13 14 14 14 14 14 14 14 14 14 14
18 16 16 16 15 15 15 14 14 14 15 14 14 14 14 14 14 14 13 13 14 14 14 14 14 13 13 13 14 14 14 13 13 13 14 14 14 13 11 10 9 9 9 10
15 15 14 14 14 14 14 13 13 14 14 14 14 14 14 14 14 13 14 14 14 14 14 14 14 13 13 13 13 14 14 14 13 13 14 15 15 15 15 13 11 10 10 9
14 14 15 14 15 14 14 13 13 14 14 14 14 14 14 15 14 14 14 14 13 13 13 13 13 13 12 13 13 14 14 12 13 14 14 14 14 14 14 14 14 14 12 11
14 13 13 13 14 14 14 13 14 14 14 14 14 14 14 15 14 14 13 13 13 14 13 13 13 12 12 12 12 13 13 13 13 13 13 13 13 14 14 14 14 14 14 12
14 14 13 14 14 14 15 15 15 15 14 14 14 14 14 14 14 13 13 13 14 13 12 12 12 11 11 12 12 11 11 10 9 12 12 11 11 12 12 13 13 13 13 12
14 14 14 14 14 14 15 14 14 14 14 14 14 14 14 14 14 14 13 13 13 12 12 12 12 11 11 11 11 11 11 10 8 10 11 10 10 10 9 10 10 10 10 10
13 13 13 14 14 15 14 14 14 14 14 13 13 14 14 14 14 13 13 12 12 12 11 11 10 10 10 9 10 10 10 10 10 10 10 10 10 9 9 9 10 10 10 10
13 13 13 13 13 13 13 13 13 13 12 12 13 13 13 12 12 12 12 13 13 12 11 10 8 8 9 9 8 9 10 10 9 9 10 9 9 9 9 9 9 9 10 9
13 12 12 12 12 12 12 12 12 12 11 12 12 13 13 12 11 12 12 12 11 10 10 9 9 9 9 9 7 8 9 9 8 8 8 8 8 8 9 8 8 9 9 9
12 12 12 12 12 11 11 11 11 12 11 11 12 11 11 11 10 11 12 12 10 9 9 8 8 8 8 7 7 7 7 7 8 7 8 8 8 7 7 7 7 8 8 8
11 12 11 11 12 12 11 11 11 11 11 11 10 11 11 11 11 11 10 10 9 7 8 8 8 7 7 5 7 7 7 7 7 7 7 7 7 7 7 7 7 7 7 7
10 11 10 10 10 10 10 10 10 10 10 10 10 10 10 10 10 11 11 8 9 8 7 7 6 5 5 5 6 7 7 6 6 6 6 6 7 7 7 7 7 6 6 7
11 10 10 10 11 11 12 10 10 10 10 9 9 9 10 10 9 8 8 7 5 6 7 6 5 4 4 6 6 6 6 5 6 6 6 5 6 6 6 6 6 6 6 6
9 9 9 10 11 10 10 9 10 10 10 10 10 9 8 8 9 7 7 7 6 6 7 5 4 4 6 7 6 6 5 5 5 5 5 5 5 5 6 6 6 7 7 7
9 9 8 8 8 8 8 9 10 9 8 9 8 7 7 7 8 7 7 6 7 6 6 6 6 6 7 7 6 6 5 5 5 5 5 5 6 6 6 6 7 7 7 8
9 6 7 8 7 8 8 8 8 8 7 7 8 7 7 7 7 6 5 6 6 6 6 6 6 6 7 7 6 5 5 5 5 6 6 6 6 7 7 7 8 8 9 9